Voltar ao catálogo

TEVEL2-8

AtivoRádio AmadorSSO
NORAD 63239·PAYLOAD·🇮🇱 Israel

Lançado Mar 15, 2025 de Vandenberg Space Force Base

Loading…

Próximas Passagens (próximas 24 horas)

TLE

AtualizadoSource: Space-Track

Época: Sep 14, 2026, 12:13 UTC

1 63239U 25052AF  26257.50920075  .00013336  00000-0  40679-3 0  9992
2 63239  97.3801 152.6084 0006101 163.8267 196.3172 15.34042962 83703

Acompanhe TEVEL2-8 em tempo real com AllMySat

Download on the App Store